Back to catalog

HAIYANG 3A

AliveScienceSSO
NORAD 58349·PAYLOAD·🇨🇳 China

Launched Nov 16, 2023 from Jiuquan Satellite Launch Center

Loading…

Next Passes (next 24 hours)

TLE

FreshSource: Space-Track

Epoch: Sep 14, 2026, 14:39 UTC

1 58349U 23176A   26257.61056192  .00000061  00000-0  37255-4 0  9993
2 58349  98.5404 334.5323 0010631 117.0346 243.1925 14.34142723148131

Track HAIYANG 3A in real time with AllMySat

Download on the App Store